| time (UTC) | temp C | wind direction | speed KPH | gust KPH | rain 1hr cm | rain 24hr cm | rain mn cm | humidity % | barometer mb |
| 20260506072959 | 15 | 229 | 0.0 | 4.8 | 0.00 | 0.00 | 0.00 | 86 | 1026.8 |
| 20260506072452 | 15 | 112 | 0.0 | 0.0 | 0.00 | 0.00 | 0.00 | 86 | 1026.8 |
| 20260506071948 | 15 | 94 | 1.6 | 4.8 | 0.00 | 0.00 | 0.00 | 86 | 1026.7 |
| 20260506071429 | 15 | 155 | 1.6 | 4.8 | 0.00 | 0.00 | 0.00 | 86 | 1026.8 |
| 20260506070923 | 15 | 122 | 1.6 | 4.8 | 0.00 | 0.00 | 0.00 | 86 | 1026.8 |
| 20260506070420 | 15 | 94 | 1.6 | 4.8 | 0.00 | 0.00 | 0.00 | 86 | 1026.8 |
| 20260506062047 | 14 | 33 | 0.0 | 4.8 | 0.00 | 0.00 | 0.00 | 84 | 1026.7 |
| 20260506061528 | 14 | 82 | 0.0 | 3.2 | 0.00 | 0.00 | 0.00 | 83 | 1026.6 |
| 20260506061014 | 14 | 112 | 0.0 | 3.2 | 0.00 | 0.00 | 0.00 | 83 | 1026.6 |
| 20260506060459 | 14 | 147 | 0.0 | 1.6 | 0.00 | 0.00 | 0.00 | 83 | 1026.6 |
| 20260506051130 | 16 | 82 | 0.0 | 4.8 | 0.00 | 0.00 | 0.00 | 77 | 1026.7 |
| 20260506045001 | 17 | 298 | 3.2 | 12.9 | 0.00 | 0.00 | 0.00 | 74 | 1026.8 |
| 20260506044455 | 18 | 289 | 3.2 | 12.9 | 0.00 | 0.00 | 0.00 | 74 | 1026.8 |
| 20260506043942 | 18 | 321 | 3.2 | 12.9 | 0.00 | 0.00 | 0.00 | 73 | 1026.8 |
| 20260506043445 | 18 | 355 | 3.2 | 12.9 | 0.00 | 0.00 | 0.00 | 72 | 1026.8 |
| 20260506042325 | 18 | 209 | 3.2 | 8.0 | 0.00 | 0.00 | 0.00 | 74 | 1026.9 |
| 20260506041816 | 18 | 325 | 3.2 | 8.0 | 0.00 | 0.00 | 0.00 | 74 | 1027.0 |
| 20260506040659 | 18 | 291 | 4.8 | 12.9 | 0.00 | 0.00 | 0.00 | 74 | 1027.0 |
| 20260506040158 | 18 | 251 | 4.8 | 12.9 | 0.00 | 0.00 | 0.00 | 73 | 1027.0 |
| 20260506035644 | 18 | 246 | 4.8 | 11.3 | 0.00 | 0.00 | 0.00 | 74 | 1026.9 |
| 20260506035130 | 17 | 275 | 4.8 | 11.3 | 0.00 | 0.00 | 0.00 | 74 | 1026.9 |
| 20260506034626 | 18 | 305 | 3.2 | 11.3 | 0.00 | 0.00 | 0.00 | 73 | 1027.0 |
| 20260506034129 | 18 | 351 | 3.2 | 14.5 | 0.00 | 0.00 | 0.00 | 73 | 1027.0 |
| 20260506033620 | 17 | 263 | 4.8 | 14.5 | 0.00 | 0.00 | 0.00 | 73 | 1027.0 |
| 20260506033120 | 17 | 327 | 3.2 | 16.1 | 0.00 | 0.00 | 0.00 | 73 | 1027.0 |
| 20260506032604 | 17 | 324 | 4.8 | 16.1 | 0.00 | 0.00 | 0.00 | 72 | 1027.0 |
| 20260506032052 | 18 | 328 | 4.8 | 16.1 | 0.00 | 0.00 | 0.00 | 71 | 1027.0 |
| 20260506031546 | 18 | 270 | 4.8 | 16.1 | 0.00 | 0.00 | 0.00 | 71 | 1027.0 |
| 20260506031051 | 18 | 279 | 4.8 | 11.3 | 0.00 | 0.00 | 0.00 | 70 | 1026.9 |
| 20260506030550 | 18 | 327 | 4.8 | 12.9 | 0.00 | 0.00 | 0.00 | 69 | 1026.9 |
| 20260506025405 | 19 | 263 | 4.8 | 12.9 | 0.00 | 0.00 | 0.00 | 69 | 1026.9 |
| 20260506024903 | 18 | 352 | 4.8 | 12.9 | 0.00 | 0.00 | 0.00 | 69 | 1026.9 |
| 20260506024356 | 18 | 319 | 3.2 | 8.0 | 0.00 | 0.00 | 0.00 | 71 | 1026.9 |
| 20260506023846 | 18 | 10 | 4.8 | 9.7 | 0.00 | 0.00 | 0.00 | 70 | 1026.9 |
| 20260506023328 | 18 | 323 | 4.8 | 9.7 | 0.00 | 0.00 | 0.00 | 69 | 1026.9 |
| 20260506022825 | 18 | 332 | 4.8 | 12.9 | 0.00 | 0.00 | 0.00 | 69 | 1026.8 |
| 20260506022318 | 18 | 291 | 4.8 | 12.9 | 0.00 | 0.00 | 0.00 | 67 | 1026.8 |
| 20260506021140 | 19 | 317 | 4.8 | 16.1 | 0.00 | 0.00 | 0.00 | 68 | 1026.8 |
| 20260506020620 | 18 | 0 | 6.4 | 16.1 | 0.00 | 0.00 | 0.00 | 68 | 1026.8 |
| 20260506020129 | 18 | 307 | 6.4 | 16.1 | 0.00 | 0.00 | 0.00 | 66 | 1026.9 |
| 20260506015609 | 19 | 277 | 6.4 | 16.1 | 0.00 | 0.00 | 0.00 | 67 | 1026.8 |
| 20260506015103 | 19 | 297 | 4.8 | 16.1 | 0.00 | 0.00 | 0.00 | 67 | 1026.9 |
| 20260506014559 | 19 | 294 | 4.8 | 16.1 | 0.00 | 0.00 | 0.00 | 67 | 1026.9 |
| 20260506014044 | 19 | 253 | 6.4 | 14.5 | 0.00 | 0.00 | 0.00 | 67 | 1026.9 |
| 20260506013539 | 18 | 331 | 4.8 | 14.5 | 0.00 | 0.00 | 0.00 | 67 | 1027.0 |
| 20260506013047 | 18 | 274 | 6.4 | 14.5 | 0.00 | 0.00 | 0.00 | 67 | 1027.1 |
| 20260506012530 | 18 | 346 | 6.4 | 14.5 | 0.00 | 0.00 | 0.00 | 67 | 1027.2 |
| 20260506012014 | 18 | 24 | 4.8 | 14.5 | 0.00 | 0.00 | 0.00 | 67 | 1027.2 |
| 20260506011502 | 18 | 14 | 3.2 | 12.9 | 0.00 | 0.00 | 0.00 | 67 | 1027.3 |
| 20260506011003 | 18 | 304 | 3.2 | 12.9 | 0.00 | 0.00 | 0.00 | 69 | 1027.3 |
| 20260506010503 | 18 | 341 | 3.2 | 12.9 | 0.00 | 0.00 | 0.00 | 69 | 1027.4 |
| 20260506010000 | 18 | 296 | 4.8 | 16.1 | 0.00 | 0.00 | 0.00 | 68 | 1027.4 |
| 20260506005503 | 18 | 333 | 6.4 | 16.1 | 0.00 | 0.00 | 0.00 | 68 | 1027.5 |
| 20260506004947 | 18 | 338 | 6.4 | 16.1 | 0.00 | 0.00 | 0.00 | 68 | 1027.5 |
| 20260506004453 | 18 | 0 | 6.4 | 16.1 | 0.00 | 0.00 | 0.00 | 67 | 1027.6 |
| 20260506004001 | 18 | 284 | 6.4 | 17.7 | 0.00 | 0.00 | 0.00 | 68 | 1027.6 |
| 20260506003459 | 18 | 352 | 6.4 | 17.7 | 0.00 | 0.00 | 0.00 | 68 | 1027.7 |
| 20260506002941 | 18 | 350 | 6.4 | 17.7 | 0.00 | 0.00 | 0.00 | 68 | 1027.9 |
| 20260506002446 | 18 | 350 | 8.0 | 17.7 | 0.00 | 0.00 | 0.00 | 67 | 1027.9 |
| 20260506001310 | 18 | 9 | 6.4 | 16.1 | 0.00 | 0.00 | 0.00 | 68 | 1028.0 |
| 20260506000756 | 18 | 319 | 6.4 | 12.9 | 0.00 | 0.00 | 0.00 | 68 | 1028.1 |
| 20260505235633 | 18 | 338 | 6.4 | 19.3 | 0.00 | 0.00 | 0.00 | 68 | 1028.2 |
| 20260505235114 | 18 | 327 | 6.4 | 19.3 | 0.00 | 0.00 | 0.00 | 68 | 1028.1 |
| 20260505233336 | 18 | 2 | 4.8 | 16.1 | 0.00 | 0.00 | 0.00 | 67 | 1028.2 |
| 20260505232834 | 18 | 291 | 4.8 | 14.5 | 0.00 | 0.00 | 0.00 | 68 | 1028.2 |
| 20260505232319 | 18 | 285 | 6.4 | 16.1 | 0.00 | 0.00 | 0.00 | 69 | 1028.2 |
| 20260505231822 | 18 | 355 | 6.4 | 16.1 | 0.00 | 0.00 | 0.00 | 69 | 1028.2 |
| 20260505231306 | 18 | 305 | 6.4 | 16.1 | 0.00 | 0.00 | 0.00 | 68 | 1028.3 |
| 20260505230815 | 18 | 0 | 6.4 | 16.1 | 0.00 | 0.00 | 0.00 | 71 | 1028.3 |
| 20260505225022 | 17 | 12 | 3.2 | 12.9 | 0.00 | 0.00 | 0.00 | 72 | 1028.3 |
| 20260505224524 | 17 | 18 | 4.8 | 9.7 | 0.00 | 0.00 | 0.00 | 73 | 1028.3 |
| 20260505223402 | 17 | 65 | 4.8 | 14.5 | 0.00 | 0.00 | 0.00 | 73 | 1028.4 |
| 20260505222850 | 17 | 301 | 4.8 | 14.5 | 0.00 | 0.00 | 0.00 | 73 | 1028.4 |
| 20260505222353 | 17 | 28 | 4.8 | 14.5 | 0.00 | 0.00 | 0.00 | 73 | 1028.4 |
| 20260505221842 | 17 | 155 | 4.8 | 14.5 | 0.00 | 0.00 | 0.00 | 73 | 1028.5 |
| 20260505221347 | 17 | 324 | 4.8 | 14.5 | 0.00 | 0.00 | 0.00 | 73 | 1028.5 |
| 20260505220833 | 17 | 7 | 8.0 | 16.1 | 0.00 | 0.00 | 0.00 | 73 | 1028.5 |
| 20260505220335 | 17 | 2 | 8.0 | 16.1 | 0.00 | 0.00 | 0.00 | 74 | 1028.5 |
| 20260505215815 | 16 | 24 | 6.4 | 16.1 | 0.00 | 0.00 | 0.00 | 74 | 1028.6 |
| 20260505215319 | 16 | 31 | 6.4 | 16.1 | 0.00 | 0.00 | 0.00 | 74 | 1028.7 |
| 20260505214813 | 16 | 33 | 6.4 | 14.5 | 0.00 | 0.00 | 0.00 | 74 | 1028.6 |
| 20260505214314 | 16 | 14 | 6.4 | 14.5 | 0.00 | 0.00 | 0.00 | 74 | 1028.7 |
| 20260505213758 | 16 | 37 | 8.0 | 14.5 | 0.00 | 0.00 | 0.00 | 74 | 1028.6 |
| 20260505213252 | 16 | 21 | 6.4 | 14.5 | 0.00 | 0.00 | 0.00 | 75 | 1028.6 |
| 20260505212748 | 16 | 36 | 6.4 | 12.9 | 0.00 | 0.00 | 0.00 | 76 | 1028.6 |
| 20260505212251 | 16 | 16 | 6.4 | 11.3 | 0.00 | 0.00 | 0.00 | 77 | 1028.6 |
| 20260505211752 | 16 | 23 | 6.4 | 12.9 | 0.00 | 0.00 | 0.00 | 76 | 1028.7 |
| 20260505211249 | 15 | 16 | 6.4 | 12.9 | 0.00 | 0.00 | 0.00 | 77 | 1028.7 |
| 20260505210108 | 15 | 17 | 6.4 | 12.9 | 0.00 | 0.00 | 0.00 | 77 | 1028.8 |
| 20260505205602 | 15 | 35 | 4.8 | 11.3 | 0.00 | 0.00 | 0.00 | 78 | 1028.8 |
| 20260505205048 | 15 | 9 | 3.2 | 9.7 | 0.00 | 0.00 | 0.00 | 78 | 1028.8 |
| 20260505202016 | 14 | 26 | 3.2 | 8.0 | 0.00 | 0.00 | 0.00 | 79 | 1028.7 |
| 20260505201520 | 14 | 31 | 3.2 | 12.9 | 0.00 | 0.00 | 0.00 | 79 | 1028.6 |
| 20260505201001 | 14 | 5 | 3.2 | 12.9 | 0.00 | 0.00 | 0.00 | 80 | 1028.7 |
| 20260505200506 | 14 | 291 | 3.2 | 12.9 | 0.00 | 0.00 | 0.00 | 80 | 1028.7 |
| 20260505200002 | 13 | 5 | 3.2 | 12.9 | 0.00 | 0.00 | 0.00 | 80 | 1028.6 |
| 20260505195448 | 13 | 23 | 3.2 | 6.4 | 0.00 | 0.00 | 0.00 | 81 | 1028.7 |
| 20260505193702 | 12 | 26 | 1.6 | 4.8 | 0.00 | 0.00 | 0.00 | 83 | 1028.6 |
| 20260505193203 | 12 | 17 | 1.6 | 6.4 | 0.00 | 0.00 | 0.00 | 83 | 1028.6 |
| 20260505192709 | 12 | 28 | 1.6 | 6.4 | 0.00 | 0.00 | 0.00 | 84 | 1028.6 |
| 20260505192150 | 12 | 16 | 3.2 | 6.4 | 0.00 | 0.00 | 0.00 | 84 | 1028.6 |
| 20260505191629 | 12 | 60 | 1.6 | 4.8 | 0.00 | 0.00 | 0.00 | 84 | 1028.5 |
| 20260505191050 | 12 | 26 | 0.0 | 3.2 | 0.00 | 0.00 | 0.00 | 83 | 1028.5 |
| 20260505185921 | 12 | 96 | 1.6 | 3.2 | 0.00 | 0.00 | 0.00 | 83 | 1028.4 |
| 20260505185410 | 12 | 79 | 1.6 | 6.4 | 0.00 | 0.00 | 0.00 | 83 | 1028.5 |
| 20260505184916 | 12 | 85 | 1.6 | 6.4 | 0.00 | 0.00 | 0.00 | 83 | 1028.5 |
| 20260505184405 | 12 | 101 | 0.0 | 3.2 | 0.00 | 0.00 | 0.00 | 83 | 1028.6 |
| 20260505183847 | 12 | 200 | 0.0 | 3.2 | 0.00 | 0.00 | 0.00 | 83 | 1028.6 |
| 20260505182722 | 12 | 112 | 1.6 | 0.0 | 0.00 | 0.00 | 0.00 | 83 | 1028.6 |
| 20260505182209 | 12 | 101 | 1.6 | 6.4 | 0.00 | 0.00 | 0.00 | 83 | 1028.5 |
| 20260505181708 | 12 | 82 | 1.6 | 3.2 | 0.00 | 0.00 | 0.00 | 83 | 1028.6 |
| 20260505181158 | 12 | 89 | 0.0 | 3.2 | 0.00 | 0.00 | 0.00 | 83 | 1028.6 |
| 20260505180707 | 12 | 79 | 0.0 | 3.2 | 0.00 | 0.00 | 0.00 | 83 | 1028.7 |
| 20260505180158 | 12 | 321 | 1.6 | 3.2 | 0.00 | 0.00 | 0.00 | 83 | 1028.7 |
| 20260505175650 | 12 | 91 | 0.0 | 3.2 | 0.00 | 0.00 | 0.00 | 83 | 1028.7 |
| 20260505175150 | 12 | 89 | 0.0 | 3.2 | 0.00 | 0.00 | 0.00 | 82 | 1028.7 |
| 20260505174638 | 12 | 112 | 0.0 | 3.2 | 0.00 | 0.00 | 0.00 | 82 | 1028.7 |
| 20260505174138 | 12 | 75 | 0.0 | 3.2 | 0.00 | 0.00 | 0.00 | 82 | 1028.8 |
| 20260505173623 | 12 | 66 | 1.6 | 3.2 | 0.00 | 0.00 | 0.00 | 82 | 1028.8 |
| 20260505171820 | 12 | 49 | 0.0 | 3.2 | 0.00 | 0.00 | 0.00 | 81 | 1028.8 |
| 20260505171325 | 12 | 49 | 1.6 | 6.4 | 0.00 | 0.00 | 0.00 | 81 | 1028.9 |
| 20260505170819 | 12 | 23 | 1.6 | 6.4 | 0.00 | 0.00 | 0.00 | 81 | 1028.9 |
| 20260505170322 | 12 | 91 | 3.2 | 6.4 | 0.00 | 0.00 | 0.00 | 81 | 1028.8 |
| 20260505165821 | 12 | 66 | 3.2 | 6.4 | 0.00 | 0.00 | 0.00 | 81 | 1028.9 |
| 20260505165316 | 12 | 73 | 1.6 | 4.8 | 0.00 | 0.00 | 0.00 | 81 | 1029.0 |
| 20260505164822 | 12 | 28 | 0.0 | 4.8 | 0.00 | 0.00 | 0.00 | 81 | 1029.2 |
| 20260505163644 | 12 | 30 | 1.6 | 4.8 | 0.00 | 0.00 | 0.00 | 82 | 1029.1 |
| 20260505163128 | 12 | 53 | 1.6 | 3.2 | 0.00 | 0.00 | 0.00 | 82 | 1029.1 |
| 20260505162634 | 12 | 17 | 0.0 | 4.8 | 0.00 | 0.00 | 0.00 | 82 | 1029.2 |
| 20260505162113 | 12 | 23 | 0.0 | 4.8 | 0.00 | 0.00 | 0.00 | 82 | 1029.2 |
| 20260505161607 | 12 | 94 | 1.6 | 4.8 | 0.00 | 0.00 | 0.00 | 82 | 1029.2 |
| 20260505161111 | 12 | 33 | 1.6 | 4.8 | 0.00 | 0.00 | 0.00 | 83 | 1029.3 |
| 20260505160612 | 11 | 37 | 1.6 | 3.2 | 0.00 | 0.00 | 0.00 | 82 | 1029.3 |
| 20260505153234 | 11 | 350 | 0.0 | 3.2 | 0.00 | 0.00 | 0.00 | 83 | 1029.4 |
| 20260505152734 | 11 | 23 | 1.6 | 4.8 | 0.00 | 0.00 | 0.00 | 83 | 1029.5 |
| 20260505152234 | 11 | 301 | 1.6 | 4.8 | 0.00 | 0.00 | 0.00 | 83 | 1029.5 |
| 20260505151107 | 11 | 23 | 1.6 | 6.4 | 0.00 | 0.00 | 0.00 | 83 | 1029.5 |
| 20260505150546 | 11 | 161 | 3.2 | 6.4 | 0.00 | 0.00 | 0.00 | 84 | 1029.5 |
| 20260505140236 | 10 | 49 | 1.6 | 3.2 | 0.00 | 0.00 | 0.00 | 83 | 1029.8 |
| 20260505124929 | 10 | 77 | 1.6 | 4.8 | 0.00 | 0.00 | 0.00 | 84 | 1030.4 |
| 20260505124437 | 10 | 114 | 1.6 | 4.8 | 0.00 | 0.00 | 0.00 | 84 | 1030.4 |
| 20260505123928 | 9 | 126 | 1.6 | 4.8 | 0.00 | 0.00 | 0.00 | 84 | 1030.4 |
| 20260505123413 | 9 | 137 | 1.6 | 4.8 | 0.00 | 0.00 | 0.00 | 84 | 1030.4 |
| 20260505122858 | 9 | 116 | 1.6 | 4.8 | 0.00 | 0.00 | 0.00 | 84 | 1030.5 |
| 20260505122356 | 9 | 94 | 1.6 | 4.8 | 0.00 | 0.00 | 0.00 | 84 | 1030.6 |
| 20260505121839 | 9 | 66 | 1.6 | 4.8 | 0.00 | 0.00 | 0.00 | 84 | 1030.6 |
| 20260505120737 | 8 | 118 | 0.0 | 6.4 | 0.00 | 0.00 | 0.00 | 84 | 1030.7 |
| 20260505120218 | 8 | 338 | 1.6 | 6.4 | 0.00 | 0.00 | 0.00 | 84 | 1030.6 |
| 20260505115705 | 8 | 90 | 1.6 | 6.4 | 0.00 | 0.00 | 0.00 | 84 | 1030.7 |
| 20260505114552 | 8 | 103 | 0.0 | 6.4 | 0.00 | 0.00 | 0.00 | 84 | 1030.7 |
| 20260505114056 | 8 | 104 | 1.6 | 6.4 | 0.00 | 0.00 | 0.00 | 83 | 1030.8 |
| 20260505113558 | 8 | 293 | 1.6 | 9.7 | 0.00 | 0.00 | 0.00 | 83 | 1030.8 |
| 20260505113054 | 8 | 66 | 1.6 | 9.7 | 0.00 | 0.00 | 0.00 | 83 | 1030.8 |
| 20260505112543 | 8 | 312 | 4.8 | 9.7 | 0.00 | 0.00 | 0.00 | 83 | 1030.9 |
| 20260505112023 | 8 | 72 | 4.8 | 9.7 | 0.00 | 0.00 | 0.00 | 83 | 1030.8 |
| 20260505111513 | 8 | 75 | 3.2 | 6.4 | 0.00 | 0.00 | 0.00 | 83 | 1031.0 |
| 20260505111007 | 8 | 82 | 3.2 | 6.4 | 0.00 | 0.00 | 0.00 | 83 | 1030.9 |
| 20260505110508 | 8 | 97 | 0.0 | 6.4 | 0.00 | 0.00 | 0.00 | 84 | 1031.0 |
| 20260505101814 | 8 | 49 | 1.6 | 4.8 | 0.00 | 0.00 | 0.00 | 83 | 1031.4 |
| 20260505101313 | 8 | 91 | 1.6 | 4.8 | 0.00 | 0.00 | 0.00 | 83 | 1031.3 |
| 20260505100755 | 8 | 75 | 1.6 | 6.4 | 0.00 | 0.00 | 0.00 | 83 | 1031.4 |
| 20260505100238 | 8 | 66 | 1.6 | 6.4 | 0.00 | 0.00 | 0.00 | 83 | 1031.4 |
| 20260505095732 | 8 | 124 | 1.6 | 9.7 | 0.00 | 0.00 | 0.00 | 83 | 1031.4 |
| 20260505095224 | 8 | 85 | 1.6 | 9.7 | 0.00 | 0.00 | 0.00 | 83 | 1031.3 |
| 20260505094718 | 8 | 5 | 3.2 | 9.7 | 0.00 | 0.00 | 0.00 | 83 | 1031.4 |
| 20260505094209 | 8 | 97 | 3.2 | 9.7 | 0.00 | 0.00 | 0.00 | 83 | 1031.3 |
| 20260505093654 | 8 | 85 | 1.6 | 6.4 | 0.00 | 0.00 | 0.00 | 83 | 1031.4 |
| 20260505093141 | 8 | 97 | 1.6 | 6.4 | 0.00 | 0.00 | 0.00 | 83 | 1031.4 |
| 20260505092629 | 8 | 105 | 1.6 | 6.4 | 0.00 | 0.00 | 0.00 | 83 | 1031.3 |
| 20260505092108 | 8 | 66 | 1.6 | 4.8 | 0.00 | 0.00 | 0.00 | 83 | 1031.3 |
| 20260505090950 | 8 | 66 | 1.6 | 6.4 | 0.00 | 0.00 | 0.00 | 82 | 1031.3 |
| 20260505085812 | 8 | 79 | 1.6 | 4.8 | 0.00 | 0.00 | 0.00 | 83 | 1031.3 |
| 20260505084009 | 8 | 124 | 1.6 | 6.4 | 0.00 | 0.00 | 0.00 | 82 | 1031.4 |
| 20260505083516 | 8 | 37 | 1.6 | 6.4 | 0.00 | 0.00 | 0.00 | 82 | 1031.5 |
| 20260505083009 | 8 | 89 | 1.6 | 8.0 | 0.00 | 0.00 | 0.00 | 83 | 1031.5 |
| 20260505082456 | 8 | 102 | 4.8 | 8.0 | 0.00 | 0.00 | 0.00 | 83 | 1031.5 |
| 20260505081938 | 8 | 106 | 4.8 | 8.0 | 0.00 | 0.00 | 0.00 | 83 | 1031.6 |
| 20260505081436 | 8 | 108 | 3.2 | 8.0 | 0.00 | 0.00 | 0.00 | 83 | 1031.5 |
| 20260505080918 | 8 | 85 | 1.6 | 6.4 | 0.00 | 0.00 | 0.00 | 83 | 1031.6 |
| 20260505080403 | 8 | 108 | 1.6 | 6.4 | 0.00 | 0.00 | 0.00 | 83 | 1031.6 |
| 20260505075221 | 8 | 90 | 1.6 | 4.8 | 0.00 | 0.00 | 0.00 | 82 | 1031.7 |
| 20260505074712 | 8 | 84 | 1.6 | 4.8 | 0.00 | 0.00 | 0.00 | 82 | 1031.8 |
| 20260505074157 | 8 | 79 | 0.0 | 4.8 | 0.00 | 0.00 | 0.00 | 82 | 1031.8 |
| 20260505073655 | 8 | 117 | 0.0 | 3.2 | 0.00 | 0.00 | 0.00 | 82 | 1031.8 |
| 20260505073150 | 8 | 23 | 1.6 | 3.2 | 0.00 | 0.00 | 0.00 | 82 | 1031.8 |